BEL556 EGJJ-EBOS

Flight info

Callsign BEL556
Flight time 0h 43m
Altitude 19000
Route BENIX G27 ANGLO DCT LYD M189 DVR DCT KOK
Aircraft B736/M-SDE2E3FGHIRWXY/LB1

Departure

Time 2026-05-04 18:24
Airport Jersey Airport (EGJJ)

Arrival

Time 2026-05-04 19:07
Airport Ostend-Bruges International Airport (EBOS)
Time Latitude Longitude Altitude Speed Heading
2026-05-04 18:10 49.20491 -2.19789 279 ft 0 kts 354°
2026-05-04 18:18 49.20469 -2.19784 282 ft 4 kts 341°
2026-05-04 18:18 49.20445 -2.19767 284 ft 3 kts 328°
2026-05-04 18:19 49.20443 -2.19765 284 ft 0 kts 328°
2026-05-04 18:20 49.20444 -2.19777 285 ft 0 kts 269°
2026-05-04 18:21 49.20444 -2.19857 279 ft 12 kts 276°
2026-05-04 18:21 49.20507 -2.19954 281 ft 16 kts 304°
2026-05-04 18:21 49.20549 -2.20152 283 ft 21 kts 287°
2026-05-04 18:21 49.20594 -2.20373 279 ft 24 kts 287°
2026-05-04 18:22 49.20617 -2.20501 279 ft 0 kts 283°
2026-05-04 18:22 49.20618 -2.20505 279 ft 1 kts 282°
2026-05-04 18:22 49.20628 -2.20604 280 ft 17 kts 275°
2026-05-04 18:22 49.20707 -2.20647 279 ft 16 kts 70°
2026-05-04 18:23 49.20709 -2.20627 279 ft 1 kts 81°
2026-05-04 18:23 49.20716 -2.20532 279 ft 40 kts 84°
2026-05-04 18:23 49.20793 -2.19633 283 ft 127 kts 82°
2026-05-04 18:23 49.20936 -2.18078 752 ft 160 kts 79°
2026-05-04 18:24 49.21123 -2.16285 1539 ft 181 kts 78°
2026-05-04 18:24 49.21311 -2.14216 2120 ft 209 kts 81°
2026-05-04 18:24 49.21503 -2.11884 2673 ft 231 kts 82°
2026-05-04 18:24 49.21720 -2.09307 3329 ft 252 kts 81°
2026-05-04 18:25 49.21951 -2.06617 4424 ft 258 kts 81°
2026-05-04 18:25 49.22493 -2.03997 4859 ft 259 kts 55°
2026-05-04 18:25 49.23666 -2.01867 4981 ft 265 kts 47°
2026-05-04 18:25 49.24915 -1.99790 4987 ft 264 kts 47°
2026-05-04 18:26 49.26160 -1.97725 4994 ft 263 kts 47°
2026-05-04 18:26 49.27375 -1.95697 4998 ft 261 kts 47°
2026-05-04 18:26 49.28609 -1.93621 4990 ft 260 kts 47°
2026-05-04 18:26 49.29804 -1.91601 4990 ft 259 kts 47°
2026-05-04 18:27 49.31013 -1.89551 4995 ft 259 kts 47°
2026-05-04 18:27 49.32220 -1.87504 4993 ft 259 kts 47°
2026-05-04 18:27 49.33439 -1.85432 5155 ft 266 kts 47°
2026-05-04 18:27 49.34684 -1.83314 6248 ft 267 kts 48°
2026-05-04 18:28 49.35939 -1.81176 7328 ft 272 kts 48°
2026-05-04 18:28 49.37218 -1.78996 8383 ft 277 kts 49°
2026-05-04 18:28 49.38511 -1.76788 9447 ft 281 kts 48°
2026-05-04 18:28 49.39831 -1.74535 10418 ft 288 kts 49°
2026-05-04 18:29 49.41223 -1.72154 10823 ft 314 kts 49°
2026-05-04 18:29 49.42745 -1.69546 11061 ft 343 kts 49°
2026-05-04 18:29 49.44388 -1.66731 11543 ft 361 kts 49°
2026-05-04 18:29 49.46074 -1.63842 12426 ft 365 kts 49°
2026-05-04 18:30 49.49491 -1.57975 14247 ft 371 kts 49°
2026-05-04 18:30 49.51226 -1.54991 14977 ft 377 kts 49°
2026-05-04 18:30 49.52969 -1.51988 15584 ft 385 kts 49°
2026-05-04 18:31 49.54769 -1.48885 16272 ft 391 kts 49°
2026-05-04 18:31 49.56615 -1.45783 17041 ft 395 kts 49°
2026-05-04 18:31 49.58500 -1.42670 17786 ft 399 kts 49°
2026-05-04 18:31 49.60409 -1.39531 18469 ft 404 kts 48°
2026-05-04 18:32 49.62351 -1.36349 18935 ft 409 kts 48°
2026-05-04 18:32 49.64320 -1.33119 18987 ft 421 kts 49°
2026-05-04 18:32 49.66358 -1.29767 19004 ft 435 kts 49°
2026-05-04 18:32 49.68452 -1.26318 19005 ft 445 kts 49°
2026-05-04 18:33 49.70573 -1.22820 18989 ft 446 kts 49°
2026-05-04 18:33 49.72684 -1.19336 18981 ft 442 kts 49°
2026-05-04 18:33 49.74789 -1.15890 18987 ft 440 kts 48°
2026-05-04 18:33 49.76926 -1.12512 18994 ft 438 kts 47°
2026-05-04 18:34 49.79073 -1.09173 18989 ft 437 kts 47°
2026-05-04 18:34 49.81207 -1.05864 18993 ft 437 kts 47°
2026-05-04 18:34 49.83352 -1.02527 18994 ft 437 kts 47°
2026-05-04 18:34 49.85494 -0.99181 18993 ft 438 kts 47°
2026-05-04 18:35 49.87639 -0.95816 18986 ft 438 kts 47°
2026-05-04 18:35 49.89779 -0.92445 18993 ft 439 kts 48°
2026-05-04 18:35 49.91923 -0.89061 18985 ft 439 kts 47°
2026-05-04 18:35 49.94062 -0.85677 18988 ft 440 kts 47°
2026-05-04 18:36 49.96207 -0.82278 18993 ft 440 kts 47°
2026-05-04 18:36 49.98346 -0.78886 18987 ft 439 kts 47°
2026-05-04 18:36 50.00473 -0.75507 18987 ft 436 kts 47°
2026-05-04 18:36 50.02566 -0.72179 18985 ft 434 kts 47°
2026-05-04 18:37 50.04674 -0.68822 18989 ft 433 kts 47°
2026-05-04 18:37 50.06778 -0.65466 18992 ft 433 kts 47°
2026-05-04 18:37 50.08880 -0.62109 18993 ft 433 kts 47°
2026-05-04 18:37 50.10987 -0.58739 18993 ft 433 kts 47°
2026-05-04 18:38 50.13093 -0.55367 18990 ft 434 kts 47°
2026-05-04 18:38 50.15197 -0.51993 18992 ft 434 kts 47°
2026-05-04 18:38 50.17301 -0.48615 18992 ft 435 kts 47°
2026-05-04 18:38 50.19409 -0.45226 18991 ft 435 kts 47°
2026-05-04 18:39 50.21518 -0.41831 18985 ft 435 kts 47°
2026-05-04 18:39 50.23598 -0.38478 18989 ft 436 kts 47°
2026-05-04 18:39 50.25709 -0.35070 18990 ft 436 kts 47°
2026-05-04 18:39 50.27817 -0.31663 18989 ft 436 kts 47°
2026-05-04 18:40 50.29931 -0.28242 18991 ft 436 kts 47°
2026-05-04 18:40 50.32034 -0.24834 18989 ft 436 kts 47°
2026-05-04 18:40 50.34138 -0.21418 18996 ft 436 kts 47°
2026-05-04 18:40 50.36232 -0.18016 18997 ft 436 kts 47°
2026-05-04 18:41 50.38331 -0.14600 18992 ft 436 kts 47°
2026-05-04 18:41 50.40410 -0.11212 18994 ft 435 kts 47°
2026-05-04 18:41 50.42497 -0.07806 18992 ft 435 kts 47°
2026-05-04 18:41 50.44599 -0.04372 18993 ft 436 kts 47°
2026-05-04 18:42 50.46698 -0.00937 18993 ft 437 kts 47°
2026-05-04 18:42 50.48806 0.02518 18989 ft 438 kts 47°
2026-05-04 18:42 50.50910 0.05969 18994 ft 438 kts 47°
2026-05-04 18:42 50.53021 0.09437 18997 ft 439 kts 47°
2026-05-04 18:43 50.55090 0.12841 18995 ft 439 kts 47°
2026-05-04 18:43 50.57194 0.16309 18994 ft 440 kts 47°
2026-05-04 18:43 50.59300 0.19783 18994 ft 440 kts 47°
2026-05-04 18:43 50.61415 0.23276 18994 ft 439 kts 47°
2026-05-04 18:44 50.63520 0.26759 18994 ft 439 kts 47°
2026-05-04 18:44 50.64921 0.29079 18992 ft 439 kts 47°
2026-05-04 18:44 50.67716 0.33717 18992 ft 440 kts 47°
2026-05-04 18:44 50.69826 0.37221 19001 ft 440 kts 47°
2026-05-04 18:45 50.71933 0.40726 18998 ft 441 kts 47°
2026-05-04 18:45 50.74044 0.44244 18996 ft 441 kts 47°
2026-05-04 18:45 50.76159 0.47772 18987 ft 441 kts 47°
2026-05-04 18:45 50.78269 0.51298 18989 ft 442 kts 47°
2026-05-04 18:46 50.80376 0.54823 18999 ft 442 kts 47°
2026-05-04 18:46 50.82489 0.58362 18998 ft 442 kts 47°
2026-05-04 18:46 50.84595 0.61896 18997 ft 442 kts 47°
2026-05-04 18:46 50.86708 0.65447 18996 ft 442 kts 47°
2026-05-04 18:47 50.88814 0.68991 18998 ft 443 kts 47°
2026-05-04 18:47 50.90929 0.72554 18996 ft 444 kts 47°
2026-05-04 18:47 50.93045 0.76125 19002 ft 445 kts 47°
2026-05-04 18:47 50.95137 0.79659 19001 ft 445 kts 47°
2026-05-04 18:48 50.97257 0.83246 19005 ft 446 kts 47°
2026-05-04 18:48 50.99355 0.86872 18999 ft 446 kts 51°
2026-05-04 18:48 51.01149 0.90875 18992 ft 444 kts 61°
2026-05-04 18:48 51.02578 0.95214 19021 ft 443 kts 64°
2026-05-04 18:49 51.03976 0.99562 19017 ft 442 kts 63°
2026-05-04 18:49 51.05411 1.03892 19017 ft 442 kts 63°
2026-05-04 18:49 51.06862 1.08192 19019 ft 442 kts 62°
2026-05-04 18:49 51.08331 1.12486 19017 ft 442 kts 62°
2026-05-04 18:50 51.09806 1.16790 19014 ft 442 kts 62°
2026-05-04 18:50 51.11275 1.21085 19017 ft 442 kts 62°
2026-05-04 18:50 51.12740 1.25387 19011 ft 442 kts 62°
2026-05-04 18:50 51.14199 1.29698 19011 ft 442 kts 63°
2026-05-04 18:51 51.15363 1.34205 19000 ft 441 kts 75°
2026-05-04 18:51 51.15964 1.38994 19012 ft 440 kts 84°
2026-05-04 18:51 51.16038 1.43841 19004 ft 438 kts 94°
2026-05-04 18:51 51.15795 1.48616 19010 ft 438 kts 96°
2026-05-04 18:52 51.15525 1.53451 18998 ft 438 kts 96°
2026-05-04 18:52 51.15257 1.58281 18999 ft 438 kts 95°
2026-05-04 18:52 51.14995 1.63123 19001 ft 438 kts 95°
2026-05-04 18:52 51.14743 1.67947 19002 ft 438 kts 95°
2026-05-04 18:53 51.14495 1.72792 18997 ft 438 kts 95°
2026-05-04 18:53 51.14251 1.77626 19000 ft 438 kts 95°
2026-05-04 18:53 51.14006 1.82463 19001 ft 438 kts 95°
2026-05-04 18:53 51.13759 1.87300 18997 ft 438 kts 95°
2026-05-04 18:54 51.13510 1.92143 18987 ft 438 kts 95°
2026-05-04 18:54 51.13263 1.96908 18991 ft 438 kts 95°
2026-05-04 18:54 51.13007 2.01813 18840 ft 439 kts 95°
2026-05-04 18:54 51.12883 2.06651 18421 ft 435 kts 89°
2026-05-04 18:55 51.13070 2.11368 17915 ft 430 kts 85°
2026-05-04 18:55 51.13675 2.20766 16823 ft 425 kts 84°
2026-05-04 18:55 51.13951 2.25392 16114 ft 411 kts 85°
2026-05-04 18:56 51.14187 2.29830 15424 ft 392 kts 85°
2026-05-04 18:56 51.14391 2.34057 14756 ft 375 kts 85°
2026-05-04 18:56 51.14578 2.38116 14105 ft 361 kts 85°
2026-05-04 18:56 51.14754 2.42036 13424 ft 349 kts 85°
2026-05-04 18:57 51.14925 2.45837 12711 ft 340 kts 85°
2026-05-04 18:57 51.15091 2.49547 11905 ft 334 kts 85°
2026-05-04 18:57 51.15255 2.53234 11001 ft 333 kts 85°
2026-05-04 18:57 51.15340 2.56902 10120 ft 331 kts 94°
2026-05-04 18:58 51.14690 2.60399 9293 ft 329 kts 118°
2026-05-04 18:58 51.13244 2.63161 8493 ft 325 kts 141°
2026-05-04 18:58 51.11250 2.64765 7714 ft 321 kts 165°
2026-05-04 18:58 51.09044 2.64950 7008 ft 317 kts 190°
2026-05-04 18:59 51.07053 2.63723 6434 ft 308 kts 214°
2026-05-04 18:59 51.05576 2.61351 5818 ft 300 kts 237°
2026-05-04 18:59 51.04501 2.58544 5227 ft 294 kts 241°
2026-05-04 18:59 51.03712 2.55636 4971 ft 276 kts 262°
2026-05-04 19:00 51.03952 2.52769 4950 ft 259 kts 299°
2026-05-04 19:00 51.05092 2.50572 4678 ft 260 kts 321°
2026-05-04 19:00 51.06597 2.49026 4334 ft 257 kts 338°
2026-05-04 19:00 51.08303 2.48364 4151 ft 248 kts 359°
2026-05-04 19:01 51.09965 2.48713 4028 ft 238 kts 19°
2026-05-04 19:01 51.11393 2.49926 3912 ft 229 kts 36°
2026-05-04 19:01 51.12507 2.51666 3807 ft 222 kts 54°
2026-05-04 19:01 51.13205 2.53802 3710 ft 214 kts 64°
2026-05-04 19:02 51.13759 2.55927 3624 ft 205 kts 65°
2026-05-04 19:02 51.14291 2.58021 3423 ft 202 kts 65°
2026-05-04 19:02 51.14820 2.60093 3189 ft 201 kts 65°
2026-05-04 19:02 51.15346 2.62154 2943 ft 201 kts 64°
2026-05-04 19:03 51.15872 2.64209 2725 ft 198 kts 65°
2026-05-04 19:03 51.16381 2.66204 2461 ft 189 kts 65°
2026-05-04 19:03 51.16857 2.68070 2206 ft 174 kts 64°
2026-05-04 19:03 51.17285 2.69769 2030 ft 157 kts 66°
2026-05-04 19:04 51.17494 2.70838 1907 ft 148 kts 72°
2026-05-04 19:04 51.17734 2.72379 1754 ft 142 kts 73°
2026-05-04 19:04 51.17963 2.73912 1547 ft 138 kts 73°
2026-05-04 19:04 51.18177 2.75360 1344 ft 130 kts 72°
2026-05-04 19:05 51.18387 2.76765 1181 ft 130 kts 72°
2026-05-04 19:05 51.18590 2.78135 995 ft 123 kts 71°
2026-05-04 19:05 51.18786 2.79448 839 ft 123 kts 71°
2026-05-04 19:05 51.18983 2.80763 683 ft 122 kts 72°
2026-05-04 19:06 51.19180 2.82084 512 ft 121 kts 72°
2026-05-04 19:06 51.19373 2.83384 357 ft 120 kts 72°
2026-05-04 19:06 51.19568 2.84665 168 ft 119 kts 73°
2026-05-04 19:06 51.19757 2.85924 36 ft 115 kts 77°
2026-05-04 19:07 51.19920 2.87014 22 ft 82 kts 76°
2026-05-04 19:07 51.20000 2.87433 23 ft 25 kts 46°
2026-05-04 19:07 51.20144 2.87580 23 ft 24 kts 25°
2026-05-04 19:07 51.20301 2.87560 22 ft 23 kts 346°
2026-05-04 19:08 51.20307 2.87390 22 ft 18 kts 254°
2026-05-04 19:08 51.20277 2.87332 22 ft 5 kts 184°
2026-05-04 19:08 51.20240 2.87346 22 ft 6 kts 168°
2026-05-04 19:08 51.20224 2.87351 22 ft 0 kts 166°